When you browse on this site, cookies collect data to enhance your experience and personalize the content and advertising you see.
Visit our Privacy Policy to learn more. By continuing to use the site, you agree to this use of cookies and data.
  • In Spain
  • List of Countries
  • For 7 days
  • Water Temperature
  • Weather Map
  • Weather Widgets
  • user-avatar
    Login

    Hourly Weather Biskira

    Today, 16 December, Monday

    Time Temperature Precipitation Wind Pressure Humidity
    00:00 +14°C° 0 mm 3 mps 756 mmHg 62%
    01:00 +15°C° 0 mm 2 mps 755 mmHg 63%
    02:00 +14°C° 0 mm 2 mps 755 mmHg 64%
    03:00 +14°C° 0 mm 2 mps 755 mmHg 65%
    04:00 +14°C° 0 mm 2 mps 755 mmHg 66%
    05:00 +13°C° 0 mm 3 mps 754 mmHg 66%
    06:00 +13°C° 0 mm 3 mps 754 mmHg 66%
    07:00 +14°C° 0 mm 3 mps 755 mmHg 63%
    08:00 +16°C° 0 mm 3 mps 755 mmHg 60%
    09:00 +15°C° 0 mm 4 mps 755 mmHg 56%
    10:00 +18°C° 0 mm 4 mps 754 mmHg 52%
    11:00 +19°C° 0 mm 5 mps 754 mmHg 48%
    12:00 +20°C° 0 mm 6 mps 753 mmHg 44%
    13:00 +20°C° 0 mm 6 mps 752 mmHg 44%
    14:00 +20°C° 0 mm 6 mps 752 mmHg 44%
    15:00 +20°C° 0 mm 6 mps 751 mmHg 43%
    16:00 +19°C° 0 mm 6 mps 751 mmHg 46%
    17:00 +17°C° 0 mm 5 mps 751 mmHg 49%
    18:00 +16°C° 0 mm 5 mps 751 mmHg 52%
    19:00 +16°C° 0 mm 5 mps 751 mmHg 53%
    20:00 +16°C° 0 mm 5 mps 751 mmHg 53%
    21:00 +16°C° 0 mm 6 mps 751 mmHg 53%
    22:00 +16°C° 0 mm 6 mps 750 mmHg 52%
    23:00 +16°C° 0 mm 6 mps 750 mmHg 51%

    Tomorrow, 17 December, Tuesday

    Time Temperature Precipitation Wind Pressure Humidity
    00:00 +16°C° 0 mm 6 mps 749 mmHg 50%
    01:00 +16°C° 0 mm 6 mps 749 mmHg 49%
    02:00 +16°C° 0 mm 6 mps 749 mmHg 48%
    03:00 +16°C° 0 mm 6 mps 748 mmHg 47%
    04:00 +15°C° 0 mm 6 mps 748 mmHg 47%
    05:00 +15°C° 0 mm 7 mps 748 mmHg 47%
    06:00 +15°C° 0 mm 7 mps 747 mmHg 46%
    07:00 +16°C° 0 mm 8 mps 747 mmHg 45%
    08:00 +16°C° 0 mm 9 mps 747 mmHg 43%
    09:00 +17°C° 0 mm 10 mps 747 mmHg 41%
    10:00 +18°C° 0 mm 10 mps 746 mmHg 39%
    11:00 +18°C° 0 mm 11 mps 745 mmHg 38%
    12:00 +19°C° 0 mm 11 mps 745 mmHg 36%
    13:00 +19°C° 0 mm 11 mps 744 mmHg 37%
    14:00 +19°C° 0 mm 11 mps 743 mmHg 38%
    15:00 +18°C° 0 mm 11 mps 742 mmHg 39%
    16:00 +18°C° 0 mm 10 mps 743 mmHg 40%
    17:00 +18°C° 0 mm 9 mps 743 mmHg 41%
    18:00 +18°C° 0 mm 7 mps 743 mmHg 42%
    19:00 +18°C° 0 mm 7 mps 744 mmHg 43%
    20:00 +17°C° 0 mm 7 mps 744 mmHg 43%
    21:00 +17°C° 0 mm 7 mps 744 mmHg 43%
    22:00 +16°C° 0 mm 8 mps 745 mmHg 48%
    23:00 +13°C° 0 mm 8 mps 745 mmHg 53%

    Day after tomorrow, 18 December, Wednesday

    Time Temperature Precipitation Wind Pressure Humidity
    00:00 +12°C° 0 mm 9 mps 745 mmHg 58%
    01:00 +11°C° 0 mm 9 mps 745 mmHg 59%
    02:00 +11°C° 0 mm 8 mps 746 mmHg 59%
    03:00 +11°C° 0 mm 7 mps 746 mmHg 60%
    04:00 +10°C° 0 mm 6 mps 747 mmHg 61%
    05:00 +10°C° 0 mm 5 mps 747 mmHg 62%
    06:00 +11°C° 0 mm 4 mps 747 mmHg 63%
    07:00 +12°C° 0 mm 5 mps 748 mmHg 59%
    08:00 +11°C° 0 mm 6 mps 748 mmHg 55%
    09:00 +12°C° 0 mm 7 mps 749 mmHg 51%
    10:00 +14°C° 0 mm 7 mps 749 mmHg 48%
    11:00 +15°C° 0 mm 7 mps 749 mmHg 45%
    12:00 +17°C° 0 mm 8 mps 749 mmHg 42%
    13:00 +16°C° 0 mm 8 mps 750 mmHg 44%
    14:00 +16°C° 0 mm 8 mps 750 mmHg 45%
    15:00 +16°C° 0 mm 8 mps 750 mmHg 46%
    16:00 +16°C° 0 mm 6 mps 751 mmHg 49%
    17:00 +15°C° 0 mm 5 mps 751 mmHg 52%
    18:00 +14°C° 0 mm 4 mps 752 mmHg 54%
    19:00 +14°C° 0 mm 4 mps 752 mmHg 55%
    20:00 +13°C° 0 mm 3 mps 753 mmHg 55%
    21:00 +13°C° 0 mm 3 mps 754 mmHg 56%
    22:00 +12°C° 0 mm 3 mps 754 mmHg 58%
    23:00 +12°C° 0 mm 3 mps 754 mmHg 59%

    19 December, Thursday

    Time Temperature Precipitation Wind Pressure Humidity
    00:00 +11°C° 0 mm 3 mps 754 mmHg 60%
    01:00 +11°C° 0 mm 3 mps 754 mmHg 62%
    02:00 +11°C° 0 mm 3 mps 754 mmHg 63%
    03:00 +11°C° 0 mm 3 mps 754 mmHg 65%
    04:00 +10°C° 0 mm 3 mps 755 mmHg 66%
    05:00 +10°C° 0 mm 3 mps 755 mmHg 68%
    06:00 +10°C° 0 mm 2 mps 755 mmHg 70%
    07:00 +12°C° 0 mm 2 mps 755 mmHg 65%
    08:00 +13°C° 0 mm 2 mps 756 mmHg 61%
    09:00 +14°C° 0 mm 1 mps 756 mmHg 56%
    10:00 +15°C° 0 mm 1 mps 756 mmHg 53%
    11:00 +16°C° 0 mm 1 mps 755 mmHg 49%
    12:00 +16°C° 0 mm 1 mps 755 mmHg 45%
    13:00 +18°C° 0 mm 1 mps 755 mmHg 44%
    14:00 +18°C° 0 mm 1 mps 755 mmHg 43%
    15:00 +18°C° 0 mm 1 mps 755 mmHg 42%
    16:00 +16°C° 0 mm 1 mps 755 mmHg 46%
    17:00 +15°C° 0 mm 1 mps 755 mmHg 50%
    18:00 +14°C° 0 mm 1 mps 755 mmHg 54%
    19:00 +14°C° 0 mm 1 mps 755 mmHg 55%
    20:00 +14°C° 0 mm 1 mps 756 mmHg 55%
    21:00 +13°C° 0 mm 1 mps 756 mmHg 56%
    22:00 +13°C° 0 mm 1 mps 756 mmHg 57%
    23:00 +13°C° 0 mm 1 mps 756 mmHg 58%

    20 December, Friday

    Time Temperature Precipitation Wind Pressure Humidity
    00:00 +12°C° 0 mm 1 mps 755 mmHg 58%
    01:00 +12°C° 0 mm 1 mps 755 mmHg 58%
    02:00 +12°C° 0 mm 1 mps 755 mmHg 58%
    03:00 +12°C° 0 mm 1 mps 755 mmHg 58%
    04:00 +10°C° 0 mm 2 mps 754 mmHg 58%
    05:00 +10°C° 0 mm 2 mps 754 mmHg 58%
    06:00 +10°C° 0 mm 2 mps 754 mmHg 58%
    07:00 +12°C° 0 mm 2 mps 754 mmHg 55%
    08:00 +13°C° 0 mm 2 mps 754 mmHg 52%
    09:00 +14°C° 0 mm 2 mps 754 mmHg 50%
    10:00 +14°C° 0 mm 3 mps 753 mmHg 47%
    11:00 +15°C° 0 mm 4 mps 753 mmHg 44%
    12:00 +17°C° 0 mm 4 mps 752 mmHg 41%
    13:00 +17°C° 0 mm 4 mps 752 mmHg 41%
    14:00 +17°C° 0 mm 4 mps 751 mmHg 41%
    15:00 +17°C° 0 mm 4 mps 751 mmHg 40%
    16:00 +16°C° 0 mm 3 mps 751 mmHg 43%
    17:00 +16°C° 0 mm 3 mps 751 mmHg 45%
    18:00 +14°C° 0 mm 3 mps 751 mmHg 47%
    19:00 +14°C° 0 mm 3 mps 751 mmHg 47%
    20:00 +14°C° 0 mm 3 mps 751 mmHg 47%
    21:00 +14°C° 0 mm 3 mps 751 mmHg 46%
    22:00 +15°C° 0 mm 2 mps 750 mmHg 46%
    23:00 +15°C° 0 mm 2 mps 750 mmHg 46%

    21 December, Saturday

    Time Temperature Precipitation Wind Pressure Humidity
    00:00 +15°C° 0 mm 2 mps 750 mmHg 46%
    01:00 +15°C° 0 mm 1 mps 749 mmHg 47%
    02:00 +14°C° 0 mm 1 mps 749 mmHg 49%
    03:00 +14°C° 0 mm 1 mps 749 mmHg 51%
    04:00 +14°C° 0 mm 1 mps 749 mmHg 52%
    05:00 +13°C° 0 mm 0 mps 748 mmHg 53%
    06:00 +13°C° 0 mm 0 mps 748 mmHg 54%
    07:00 +13°C° 0 mm 0 mps 749 mmHg 53%
    08:00 +14°C° 0 mm 0 mps 749 mmHg 52%
    09:00 +14°C° 0 mm 0 mps 750 mmHg 51%
    10:00 +17°C° 0 mm 3 mps 750 mmHg 49%
    11:00 +19°C° 0 mm 6 mps 750 mmHg 48%
    12:00 +21°C° 0 mm 8 mps 750 mmHg 46%
    13:00 +21°C° 0 mm 8 mps 750 mmHg 45%
    14:00 +21°C° 0 mm 9 mps 751 mmHg 44%
    15:00 +21°C° 0 mm 9 mps 751 mmHg 43%
    16:00 +20°C° 0 mm 8 mps 751 mmHg 47%
    17:00 +18°C° 0 mm 7 mps 752 mmHg 51%
    18:00 +17°C° 0 mm 6 mps 752 mmHg 55%
    19:00 +17°C° 0 mm 5 mps 752 mmHg 56%
    20:00 +17°C° 0 mm 5 mps 753 mmHg 58%
    21:00 +16°C° 0 mm 5 mps 753 mmHg 59%
    22:00 +17°C° 0 mm 4 mps 753 mmHg 62%
    23:00 +17°C° 0 mm 4 mps 753 mmHg 65%
    Show more